Meteo Giornale » Osservazioni meteo Stati Uniti (USA) » Hartford -Brainard

ore: 09:53 - Osservazioni Meteo Hartford -Brainard
Lat. 41° 44' N Lon. 72° 39' W Alt. 5 metri s.l.m.

foschia

20 °C

Foschia

Temp. 24 Ore

20 °C

26 °C

Nord

5.5 Km/h

Dew point 20 °C

Umidità 100 %

Visibilità  2 Km

Il sole sorge alle ore 06:16

Il sole tramonta alle ore 19:24

Data e Ora Cielo e Fenomeni T °C DP °C Um. % Pres. hPa Vis. km Vento km/h
Oggi h: 09:53 foschia Foschia 20 20 100 1016 2 N 5.5
Oggi h: 09:01 foschia Foschia 20 19 93 1016 2 N 5.5
Oggi h: 08:53 coperto_pioggia Pioggia Foschia 20 19 93 1016 5 E/SE 7.4
Oggi h: 08:29 coperto_pioggia Pioggia Foschia 20 19 93 1016 5 NE 9.3
Oggi h: 08:04 coperto_pioggia Pioggia Foschia 20 19 93 1016 5 S/SE 7.4
Oggi h: 07:53 coperto_pioggia Pioggia Foschia 20 19 93 1016 5 SE 9.3
Oggi h: 07:29 coperto_pioggia Pioggia Foschia 20 19 93 1016 2 N 0
Oggi h: 06:53 coperto Coperto 20 19 93 1016 10 N 5.5
Oggi h: 06:29 foschia Foschia 20 19 93 1016 8 S/SE 7.4
Oggi h: 06:00 coperto Coperto 20 19 93 1016 10 S/SE 9.3
Oggi h: 05:53 coperto Coperto 20 19 93 1016 13 S 11.1
Oggi h: 05:45 foschia Foschia 21 19 88 1016 10 S/SE 11.1
Oggi h: 04:53 coperto Coperto 21 18 82 1016 10 S/SE 7.4
Oggi h: 04:08 coperto Coperto 21 18 82 1016 10 S 7.4
Oggi h: 03:53 coperto Coperto 21 18 82 1016 10 S/SE 7.4
Oggi h: 03:50 coperto Coperto 21 18 82 1016 10 S 7.4
Oggi h: 03:24 coperto Coperto 21 18 82 1017 10 N 0
Oggi h: 02:53 coperto Coperto 21 18 82 1017 10 N 5.5
Oggi h: 01:53 coperto Coperto 21 18 82 1017 10 S/SE 7.4
Oggi h: 01:14 coperto Coperto 21 18 82 1017 10 S 7.4
Oggi h: 00:53 coperto Coperto 21 18 82 1018 10 N 5.5
Ieri h: 23:53 coperto Coperto 21 17 77 1018 10 N 5.5
Ieri h: 22:53 coperto Coperto 21 17 77 1018 10 S/SE 7.4
Ieri h: 21:53 coperto Coperto 21 16 73 1018 10 S/SE 9.3
Ieri h: 20:53 coperto Coperto 22 16 68 1018 10 N 11.1
Ieri h: 19:53 coperto Coperto 22 17 73 1018 10 S 14.8
Ieri h: 18:53 coperto Coperto 23 17 68 1018 10 S 7.4
Ieri h: 17:53 coperto Coperto 24 15 57 1018 10 S 11.1
Ieri h: 16:53 coperto Coperto 25 16 57 1018 10 S/SO 14.8
Ieri h: 15:53 coperto Coperto 26 16 54 1018 10 S/SE 9.3
Ieri h: 14:53 molto_nuvoloso Molto Nuvoloso 26 14 47 1019 10 N 5.5
Ieri h: 13:53 nuvoloso Nuvoloso 26 14 47 1019 10 N 5.5
Ieri h: 12:53 sereno Sereno 25 13 47 1020 10 N 0
Ieri h: 11:53 sereno Sereno 24 17 64 1020 10 N 0
Ieri h: 10:53 sereno Sereno 23 17 68 1020 10 N 5.5